| time (UTC) | temp F | wind direction | speed MPH | gust MPH | rain 1hr in | rain 24hr in | rain mn in | humidity % | barometer mb |
| 20260506013431 | 0 | 0.0 | 0.0 | 0.00 | 0.00 | 0.00 | 1006.3 | ||
| 20260506012927 | 0 | 0.0 | 0.0 | 0.00 | 0.00 | 0.00 | 1006.4 | ||
| 20260506012424 | 0 | 0.0 | 0.0 | 0.00 | 0.00 | 0.00 | 1006.4 | ||
| 20260506011921 | 0 | 0.0 | 0.0 | 0.00 | 0.00 | 0.00 | 1006.2 | ||
| 20260506011418 | 0 | 0.0 | 0.0 | 0.00 | 0.00 | 0.00 | 1006.4 | ||
| 20260506010915 | 0 | 0.0 | 0.0 | 0.00 | 0.00 | 0.00 | 1006.2 | ||
| 20260506010414 | 0 | 0.0 | 0.0 | 0.00 | 0.00 | 0.00 | 1006.1 | ||
| 20260506005910 | 0 | 0.0 | 0.0 | 0.00 | 0.00 | 0.00 | 1006.3 | ||
| 20260506005408 | 0 | 0.0 | 0.0 | 0.00 | 0.00 | 0.00 | 1006.2 | ||
| 20260506004902 | 0 | 0.0 | 0.0 | 0.00 | 0.00 | 0.00 | 1005.9 | ||
| 20260506004401 | 0 | 0.0 | 0.0 | 0.00 | 0.00 | 0.00 | 1005.9 | ||
| 20260506003856 | 0 | 0.0 | 0.0 | 0.00 | 0.00 | 0.00 | 1005.8 | ||
| 20260506003353 | 0 | 0.0 | 0.0 | 0.00 | 0.00 | 0.00 | 1005.8 | ||
| 20260506002849 | 0 | 0.0 | 0.0 | 0.00 | 0.00 | 0.00 | 1005.9 | ||
| 20260506002345 | 0 | 0.0 | 0.0 | 0.00 | 0.00 | 0.00 | 1006.0 | ||
| 20260506001841 | 0 | 0.0 | 0.0 | 0.00 | 0.00 | 0.00 | 1005.7 | ||
| 20260506001338 | 0 | 0.0 | 0.0 | 0.00 | 0.00 | 0.00 | 1005.9 | ||
| 20260506000835 | 0 | 0.0 | 0.0 | 0.00 | 0.00 | 0.00 | 1005.8 | ||
| 20260506000333 | 0 | 0.0 | 0.0 | 0.00 | 0.00 | 0.00 | 1005.8 | ||
| 20260505235830 | 0 | 0.0 | 0.0 | 0.00 | 0.00 | 0.00 | 1005.8 | ||
| 20260505235327 | 0 | 0.0 | 0.0 | 0.00 | 0.00 | 0.00 | 1005.7 | ||
| 20260505234824 | 0 | 0.0 | 0.0 | 0.00 | 0.00 | 0.00 | 1005.7 | ||
| 20260505234322 | 0 | 0.0 | 0.0 | 0.00 | 0.00 | 0.00 | 1005.6 | ||
| 20260505233819 | 0 | 0.0 | 0.0 | 0.00 | 0.00 | 0.00 | 1005.8 | ||
| 20260505233317 | 0 | 0.0 | 0.0 | 0.00 | 0.00 | 0.00 | 1005.8 | ||
| 20260505232813 | 0 | 0.0 | 0.0 | 0.00 | 0.00 | 0.00 | 1005.9 | ||
| 20260505232311 | 0 | 0.0 | 0.0 | 0.00 | 0.00 | 0.00 | 1005.6 | ||
| 20260505231808 | 0 | 0.0 | 0.0 | 0.00 | 0.00 | 0.00 | 1005.8 | ||
| 20260505231306 | 0 | 0.0 | 0.0 | 0.00 | 0.00 | 0.00 | 1005.8 | ||
| 20260505230804 | 0 | 0.0 | 0.0 | 0.00 | 0.00 | 0.00 | 1005.9 | ||
| 20260505230300 | 0 | 0.0 | 0.0 | 0.00 | 0.00 | 0.00 | 1005.8 | ||
| 20260505225757 | 0 | 0.0 | 0.0 | 0.00 | 0.00 | 0.00 | 1005.7 | ||
| 20260505225254 | 84 | 172 | 9.0 | 11.0 | 0.00 | 0.00 | 0.00 | 71 | 1005.7 |
| 20260505224749 | 84 | 172 | 9.0 | 11.0 | 0.00 | 0.00 | 0.00 | 71 | 1005.8 |
| 20260505224247 | 84 | 172 | 9.0 | 11.0 | 0.00 | 0.00 | 0.00 | 71 | 1005.8 |
| 20260505223744 | 84 | 172 | 9.0 | 11.0 | 0.00 | 0.00 | 0.00 | 71 | 1005.9 |
| 20260505223241 | 84 | 172 | 9.0 | 11.0 | 0.00 | 0.00 | 0.00 | 71 | 1005.7 |
| 20260505222737 | 84 | 172 | 9.0 | 11.0 | 0.00 | 0.00 | 0.00 | 71 | 1005.7 |
| 20260505222233 | 84 | 172 | 9.0 | 11.0 | 0.00 | 0.00 | 0.00 | 71 | 1005.8 |
| 20260505221731 | 84 | 172 | 9.0 | 11.0 | 0.00 | 0.00 | 0.00 | 71 | 1005.7 |
| 20260505221227 | 84 | 172 | 9.0 | 11.0 | 0.00 | 0.00 | 0.00 | 71 | 1005.9 |
| 20260505220724 | 84 | 172 | 9.0 | 11.0 | 0.00 | 0.00 | 0.00 | 71 | 1005.9 |
| 20260505220222 | 84 | 172 | 9.0 | 11.0 | 0.00 | 0.00 | 0.00 | 71 | 1006.1 |
| 20260505215719 | 84 | 172 | 9.0 | 11.0 | 0.00 | 0.00 | 0.00 | 71 | 1006.1 |
| 20260505215217 | 0 | 0.0 | 0.0 | 0.00 | 0.00 | 0.00 | 1006.1 | ||
| 20260505214714 | 0 | 0.0 | 0.0 | 0.00 | 0.00 | 0.00 | 1006.2 | ||
| 20260505214212 | 0 | 0.0 | 0.0 | 0.00 | 0.00 | 0.00 | 1006.1 | ||
| 20260505213709 | 0 | 0.0 | 0.0 | 0.00 | 0.00 | 0.00 | 1006.3 | ||
| 20260505213206 | 0 | 0.0 | 0.0 | 0.00 | 0.00 | 0.00 | 1006.3 | ||
| 20260505212702 | 83 | 214 | 8.0 | 10.0 | 0.00 | 0.00 | 0.00 | 73 | 1006.3 |
| 20260505212159 | 83 | 214 | 8.0 | 10.0 | 0.00 | 0.00 | 0.00 | 73 | 1006.4 |
| 20260505211656 | 83 | 214 | 8.0 | 10.0 | 0.00 | 0.00 | 0.00 | 73 | 1006.4 |
| 20260505211154 | 83 | 214 | 8.0 | 10.0 | 0.00 | 0.00 | 0.00 | 73 | 1006.4 |
| 20260505210650 | 83 | 214 | 8.0 | 10.0 | 0.00 | 0.00 | 0.00 | 73 | 1006.6 |
| 20260505210147 | 83 | 214 | 8.0 | 10.0 | 0.00 | 0.00 | 0.00 | 73 | 1006.6 |
| 20260505205644 | 83 | 214 | 8.0 | 10.0 | 0.00 | 0.00 | 0.00 | 73 | 1006.7 |
| 20260505205142 | 83 | 214 | 8.0 | 10.0 | 0.00 | 0.00 | 0.00 | 73 | 1006.7 |
| 20260505204639 | 83 | 214 | 8.0 | 10.0 | 0.00 | 0.00 | 0.00 | 73 | 1006.9 |
| 20260505204137 | 83 | 214 | 8.0 | 10.0 | 0.00 | 0.00 | 0.00 | 73 | 1006.7 |
| 20260505203633 | 83 | 214 | 8.0 | 10.0 | 0.00 | 0.00 | 0.00 | 73 | 1007.0 |
| 20260505203130 | 83 | 214 | 8.0 | 10.0 | 0.00 | 0.00 | 0.00 | 73 | 1007.1 |
| 20260505202626 | 83 | 205 | 10.0 | 13.0 | 0.00 | 0.00 | 0.00 | 73 | 1007.1 |
| 20260505202122 | 85 | 210 | 7.0 | 8.0 | 0.00 | 0.00 | 0.00 | 70 | 1007.4 |
| 20260505201619 | 85 | 210 | 7.0 | 8.0 | 0.00 | 0.00 | 0.00 | 70 | 1007.5 |
| 20260505201117 | 85 | 210 | 7.0 | 8.0 | 0.00 | 0.00 | 0.00 | 70 | 1007.3 |
| 20260505200615 | 85 | 210 | 7.0 | 8.0 | 0.00 | 0.00 | 0.00 | 70 | 1007.4 |
| 20260505200111 | 85 | 210 | 7.0 | 8.0 | 0.00 | 0.00 | 0.00 | 70 | 1007.5 |
| 20260505195608 | 83 | 154 | 6.0 | 7.0 | 0.00 | 0.00 | 0.00 | 73 | 1007.5 |
| 20260505195105 | 83 | 154 | 6.0 | 7.0 | 0.00 | 0.00 | 0.00 | 73 | 1007.5 |
| 20260505194602 | 83 | 154 | 6.0 | 7.0 | 0.00 | 0.00 | 0.00 | 73 | 1007.5 |
| 20260505194058 | 83 | 154 | 6.0 | 7.0 | 0.00 | 0.00 | 0.00 | 73 | 1007.6 |
| 20260505193555 | 83 | 154 | 6.0 | 7.0 | 0.00 | 0.00 | 0.00 | 73 | 1007.6 |
| 20260505193052 | 83 | 154 | 6.0 | 7.0 | 0.00 | 0.00 | 0.00 | 73 | 1007.8 |
| 20260505192551 | 83 | 154 | 6.0 | 7.0 | 0.00 | 0.00 | 0.00 | 73 | 1007.7 |
| 20260505192048 | 83 | 154 | 6.0 | 7.0 | 0.00 | 0.00 | 0.00 | 73 | 1007.8 |
| 20260505191546 | 82 | 186 | 6.0 | 8.0 | 0.00 | 0.00 | 0.00 | 74 | 1007.8 |
| 20260505191043 | 82 | 186 | 6.0 | 8.0 | 0.00 | 0.00 | 0.00 | 74 | 1007.7 |
| 20260505190537 | 81 | 195 | 7.0 | 8.0 | 0.00 | 0.00 | 0.00 | 76 | 1007.8 |
| 20260505190034 | 81 | 215 | 7.0 | 8.0 | 0.00 | 0.00 | 0.00 | 76 | 1007.9 |
| 20260505185531 | 82 | 208 | 8.0 | 10.0 | 0.00 | 0.00 | 0.00 | 75 | 1008.0 |
| 20260505185027 | 81 | 158 | 6.0 | 7.0 | 0.00 | 0.00 | 0.00 | 76 | 1008.0 |
| 20260505184524 | 81 | 158 | 6.0 | 7.0 | 0.00 | 0.00 | 0.00 | 76 | 1008.1 |
| 20260505184021 | 81 | 158 | 6.0 | 7.0 | 0.00 | 0.00 | 0.00 | 76 | 1007.9 |
| 20260505183518 | 81 | 158 | 6.0 | 7.0 | 0.00 | 0.00 | 0.00 | 76 | 1008.0 |
| 20260505183015 | 81 | 158 | 6.0 | 7.0 | 0.00 | 0.00 | 0.00 | 76 | 1008.0 |
| 20260505182512 | 81 | 158 | 6.0 | 7.0 | 0.00 | 0.00 | 0.00 | 76 | 1008.2 |
| 20260505182008 | 81 | 158 | 6.0 | 7.0 | 0.00 | 0.00 | 0.00 | 76 | 1008.2 |
| 20260505181505 | 81 | 158 | 6.0 | 7.0 | 0.00 | 0.00 | 0.00 | 76 | 1008.3 |
| 20260505181002 | 81 | 158 | 6.0 | 7.0 | 0.00 | 0.00 | 0.00 | 76 | 1008.2 |
| 20260505180457 | 82 | 199 | 4.0 | 4.0 | 0.00 | 0.00 | 0.00 | 76 | 1008.0 |
| 20260505175955 | 81 | 203 | 3.0 | 3.0 | 0.00 | 0.00 | 0.00 | 77 | 1008.5 |
| 20260505175451 | 80 | 200 | 4.0 | 4.0 | 0.00 | 0.00 | 0.00 | 78 | 1008.3 |
| 20260505174948 | 80 | 223 | 3.0 | 6.0 | 0.00 | 0.00 | 0.00 | 79 | 1008.4 |
| 20260505174445 | 80 | 190 | 5.0 | 7.0 | 0.00 | 0.00 | 0.00 | 78 | 1008.6 |
| 20260505173941 | 0 | 0.0 | 0.0 | 0.00 | 0.00 | 0.00 | 1008.4 | ||
| 20260505173437 | 0 | 0.0 | 0.0 | 0.00 | 0.00 | 0.00 | 1008.6 | ||
| 20260505172934 | 0 | 0.0 | 0.0 | 0.00 | 0.00 | 0.00 | 1008.6 | ||
| 20260505172433 | 0 | 0.0 | 0.0 | 0.00 | 0.00 | 0.00 | 1008.6 | ||
| 20260505171932 | 79 | 210 | 5.0 | 6.0 | 0.00 | 0.00 | 0.00 | 79 | 1008.6 |
| 20260505171429 | 79 | 210 | 5.0 | 6.0 | 0.00 | 0.00 | 0.00 | 79 | 1008.6 |
| 20260505170925 | 79 | 210 | 5.0 | 6.0 | 0.00 | 0.00 | 0.00 | 79 | 1008.7 |
| 20260505170422 | 79 | 210 | 5.0 | 6.0 | 0.00 | 0.00 | 0.00 | 79 | 1008.4 |
| 20260505165918 | 79 | 210 | 5.0 | 6.0 | 0.00 | 0.00 | 0.00 | 79 | 1008.6 |
| 20260505165414 | 79 | 210 | 5.0 | 6.0 | 0.00 | 0.00 | 0.00 | 79 | 1008.6 |
| 20260505164909 | 79 | 210 | 5.0 | 6.0 | 0.00 | 0.00 | 0.00 | 79 | 1008.8 |
| 20260505164407 | 79 | 210 | 5.0 | 6.0 | 0.00 | 0.00 | 0.00 | 79 | 1008.6 |
| 20260505163905 | 79 | 210 | 5.0 | 6.0 | 0.00 | 0.00 | 0.00 | 79 | 1008.6 |
| 20260505163403 | 79 | 210 | 5.0 | 6.0 | 0.00 | 0.00 | 0.00 | 79 | 1008.7 |
| 20260505162901 | 79 | 210 | 5.0 | 6.0 | 0.00 | 0.00 | 0.00 | 79 | 1008.7 |
| 20260505162357 | 79 | 210 | 5.0 | 6.0 | 0.00 | 0.00 | 0.00 | 79 | 1008.7 |
| 20260505161854 | 80 | 145 | 2.0 | 3.0 | 0.00 | 0.00 | 0.00 | 79 | 1008.5 |
| 20260505161351 | 80 | 145 | 2.0 | 3.0 | 0.00 | 0.00 | 0.00 | 79 | 1008.3 |
| 20260505160848 | 79 | 203 | 6.0 | 8.0 | 0.00 | 0.00 | 0.00 | 79 | 1008.4 |
| 20260505160346 | 79 | 203 | 6.0 | 8.0 | 0.00 | 0.00 | 0.00 | 79 | 1008.5 |
| 20260505153325 | 79 | 203 | 6.0 | 8.0 | 0.00 | 0.00 | 0.00 | 79 | 1008.2 |
| 20260505152822 | 79 | 203 | 6.0 | 8.0 | 0.00 | 0.00 | 0.00 | 79 | 1008.3 |
| 20260505152320 | 78 | 150 | 5.0 | 8.0 | 0.00 | 0.00 | 0.00 | 80 | 1008.3 |
| 20260505151819 | 78 | 194 | 9.0 | 11.0 | 0.00 | 0.00 | 0.00 | 80 | 1008.3 |
| 20260505151316 | 78 | 194 | 9.0 | 11.0 | 0.00 | 0.00 | 0.00 | 80 | 1008.2 |
| 20260505150813 | 78 | 216 | 6.0 | 8.0 | 0.00 | 0.00 | 0.00 | 80 | 1008.3 |
| 20260505150310 | 78 | 221 | 7.0 | 10.0 | 0.00 | 0.00 | 0.00 | 81 | 1008.3 |
| 20260505140234 | 77 | 164 | 7.0 | 10.0 | 0.00 | 0.00 | 0.00 | 84 | 1008.3 |
| 20260505130158 | 74 | 140 | 6.0 | 9.0 | 0.00 | 0.00 | 0.00 | 87 | 1008.0 |
| 20260505124648 | 74 | 140 | 6.0 | 9.0 | 0.00 | 0.00 | 0.00 | 87 | 1008.2 |
| 20260505124145 | 74 | 140 | 6.0 | 9.0 | 0.00 | 0.00 | 0.00 | 87 | 1007.9 |
| 20260505123641 | 74 | 140 | 6.0 | 9.0 | 0.00 | 0.00 | 0.00 | 87 | 1008.1 |
| 20260505123138 | 74 | 140 | 6.0 | 9.0 | 0.00 | 0.00 | 0.00 | 87 | 1008.0 |
| 20260505122634 | 74 | 186 | 3.0 | 4.0 | 0.00 | 0.00 | 0.00 | 87 | 1007.8 |
| 20260505122132 | 74 | 157 | 6.0 | 7.0 | 0.00 | 0.00 | 0.00 | 87 | 1007.6 |
| 20260505121628 | 74 | 195 | 7.0 | 8.0 | 0.00 | 0.00 | 0.00 | 87 | 1007.4 |
| 20260505121125 | 74 | 195 | 7.0 | 8.0 | 0.00 | 0.00 | 0.00 | 87 | 1007.3 |
| 20260505120621 | 74 | 158 | 5.0 | 8.0 | 0.00 | 0.00 | 0.00 | 87 | 1007.3 |
| 20260505120117 | 74 | 158 | 5.0 | 8.0 | 0.00 | 0.00 | 0.00 | 87 | 1007.1 |
| 20260505115611 | 74 | 187 | 6.0 | 7.0 | 0.00 | 0.00 | 0.00 | 87 | 1007.5 |
| 20260505115109 | 74 | 138 | 4.0 | 4.0 | 0.00 | 0.00 | 0.00 | 87 | 1007.7 |
| 20260505114606 | 74 | 183 | 2.0 | 3.0 | 0.00 | 0.00 | 0.00 | 87 | 1007.7 |
| 20260505114102 | 73 | 210 | 3.0 | 4.0 | 0.00 | 0.00 | 0.00 | 87 | 1007.9 |
| 20260505113559 | 73 | 210 | 3.0 | 4.0 | 0.00 | 0.00 | 0.00 | 87 | 1007.9 |
| 20260505113055 | 73 | 210 | 3.0 | 4.0 | 0.00 | 0.00 | 0.00 | 87 | 1007.6 |
| 20260505112551 | 73 | 210 | 3.0 | 4.0 | 0.00 | 0.00 | 0.00 | 87 | 1007.4 |
| 20260505112050 | 73 | 210 | 3.0 | 4.0 | 0.00 | 0.00 | 0.00 | 87 | 1007.6 |
| 20260505111544 | 73 | 152 | 4.0 | 6.0 | 0.00 | 0.00 | 0.00 | 87 | 1007.4 |
| 20260505111040 | 73 | 172 | 6.0 | 8.0 | 0.00 | 0.00 | 0.00 | 87 | 1007.4 |
| 20260505110537 | 73 | 185 | 5.0 | 9.0 | 0.00 | 0.00 | 0.00 | 87 | 1007.4 |
| 20260505102009 | 73 | 153 | 4.0 | 6.0 | 0.00 | 0.00 | 0.00 | 87 | 1007.5 |
| 20260505101508 | 73 | 174 | 4.0 | 7.0 | 0.00 | 0.00 | 0.00 | 87 | 1007.5 |
| 20260505101004 | 73 | 192 | 2.0 | 3.0 | 0.00 | 0.00 | 0.00 | 87 | 1007.6 |
| 20260505100501 | 73 | 205 | 4.0 | 9.0 | 0.00 | 0.00 | 0.00 | 87 | 1007.8 |
| 20260505095957 | 73 | 176 | 4.0 | 7.0 | 0.00 | 0.00 | 0.00 | 87 | 1007.7 |
| 20260505095453 | 73 | 171 | 3.0 | 4.0 | 0.00 | 0.00 | 0.00 | 87 | 1007.7 |
| 20260505094950 | 73 | 165 | 4.0 | 6.0 | 0.00 | 0.00 | 0.00 | 87 | 1007.4 |
| 20260505094447 | 72 | 178 | 4.0 | 7.0 | 0.00 | 0.00 | 0.00 | 87 | 1007.4 |
| 20260505093943 | 72 | 158 | 7.0 | 9.0 | 0.00 | 0.00 | 0.00 | 87 | 1007.6 |
| 20260505093440 | 72 | 147 | 2.0 | 4.0 | 0.00 | 0.00 | 0.00 | 87 | 1007.6 |
| 20260505092937 | 72 | 176 | 5.0 | 7.0 | 0.00 | 0.00 | 0.00 | 87 | 1007.6 |
| 20260505092434 | 72 | 186 | 6.0 | 7.0 | 0.00 | 0.00 | 0.00 | 87 | 1007.7 |
| 20260505091932 | 72 | 187 | 4.0 | 7.0 | 0.00 | 0.00 | 0.00 | 87 | 1007.9 |
| 20260505091429 | 72 | 151 | 3.0 | 7.0 | 0.00 | 0.00 | 0.00 | 86 | 1007.9 |
| 20260505090927 | 72 | 174 | 4.0 | 6.0 | 0.00 | 0.00 | 0.00 | 86 | 1008.0 |
| 20260505090425 | 72 | 156 | 4.0 | 8.0 | 0.00 | 0.00 | 0.00 | 86 | 1007.6 |
| 20260505085922 | 72 | 175 | 3.0 | 6.0 | 0.00 | 0.00 | 0.00 | 86 | 1007.8 |
| 20260505085420 | 72 | 182 | 4.0 | 7.0 | 0.00 | 0.00 | 0.00 | 86 | 1008.0 |
| 20260505084918 | 72 | 149 | 4.0 | 6.0 | 0.00 | 0.00 | 0.00 | 86 | 1008.0 |
| 20260505084416 | 72 | 142 | 3.0 | 4.0 | 0.00 | 0.00 | 0.00 | 86 | 1008.0 |
| 20260505083914 | 72 | 168 | 4.0 | 6.0 | 0.00 | 0.00 | 0.00 | 86 | 1007.9 |
| 20260505083411 | 72 | 180 | 1.0 | 4.0 | 0.00 | 0.00 | 0.00 | 86 | 1008.1 |
| 20260505082907 | 72 | 177 | 5.0 | 7.0 | 0.00 | 0.00 | 0.00 | 86 | 1008.0 |
| 20260505082403 | 72 | 185 | 3.0 | 8.0 | 0.00 | 0.00 | 0.00 | 86 | 1008.1 |
| 20260505081900 | 72 | 161 | 4.0 | 6.0 | 0.00 | 0.00 | 0.00 | 86 | 1008.2 |
| 20260505081356 | 72 | 169 | 2.0 | 4.0 | 0.00 | 0.00 | 0.00 | 86 | 1008.3 |
| 20260505080853 | 72 | 183 | 3.0 | 7.0 | 0.00 | 0.00 | 0.00 | 86 | 1008.1 |
| 20260505080349 | 72 | 172 | 5.0 | 7.0 | 0.00 | 0.00 | 0.00 | 86 | 1008.2 |
| 20260505075845 | 72 | 192 | 4.0 | 8.0 | 0.00 | 0.00 | 0.00 | 86 | 1008.2 |
| 20260505075342 | 72 | 155 | 4.0 | 7.0 | 0.00 | 0.00 | 0.00 | 85 | 1008.4 |
| 20260505074839 | 72 | 174 | 3.0 | 4.0 | 0.00 | 0.00 | 0.00 | 85 | 1008.3 |
| 20260505074336 | 72 | 194 | 5.0 | 6.0 | 0.00 | 0.00 | 0.00 | 85 | 1008.3 |
| 20260505073834 | 72 | 142 | 5.0 | 6.0 | 0.00 | 0.00 | 0.00 | 85 | 1008.2 |
| 20260505073331 | 72 | 199 | 3.0 | 7.0 | 0.00 | 0.00 | 0.00 | 85 | 1008.5 |
| 20260505072828 | 71 | 197 | 4.0 | 8.0 | 0.00 | 0.00 | 0.00 | 85 | 1008.4 |
| 20260505072324 | 71 | 208 | 4.0 | 8.0 | 0.00 | 0.00 | 0.00 | 85 | 1008.3 |
| 20260505071820 | 71 | 184 | 7.0 | 9.0 | 0.00 | 0.00 | 0.00 | 85 | 1008.4 |
| 20260505071317 | 71 | 177 | 4.0 | 8.0 | 0.00 | 0.00 | 0.00 | 85 | 1008.7 |
| 20260505070815 | 71 | 165 | 5.0 | 8.0 | 0.00 | 0.00 | 0.00 | 85 | 1008.6 |
| 20260505070311 | 71 | 192 | 6.0 | 8.0 | 0.00 | 0.00 | 0.00 | 84 | 1008.6 |
| 20260505065806 | 71 | 154 | 5.0 | 8.0 | 0.00 | 0.00 | 0.00 | 84 | 1008.8 |
| 20260505065304 | 71 | 157 | 2.0 | 3.0 | 0.00 | 0.00 | 0.00 | 84 | 1008.5 |
| 20260505064801 | 71 | 139 | 5.0 | 7.0 | 0.00 | 0.00 | 0.00 | 84 | 1008.9 |
| 20260505064258 | 71 | 167 | 2.0 | 4.0 | 0.00 | 0.00 | 0.00 | 84 | 1008.8 |
| 20260505063755 | 71 | 122 | 3.0 | 6.0 | 0.00 | 0.00 | 0.00 | 83 | 1008.9 |
| 20260505063252 | 71 | 169 | 4.0 | 7.0 | 0.00 | 0.00 | 0.00 | 83 | 1009.1 |
| 20260505062748 | 71 | 190 | 4.0 | 7.0 | 0.00 | 0.00 | 0.00 | 83 | 1009.3 |
| 20260505062246 | 71 | 162 | 4.0 | 6.0 | 0.00 | 0.00 | 0.00 | 83 | 1009.2 |
| 20260505061743 | 71 | 143 | 5.0 | 7.0 | 0.00 | 0.00 | 0.00 | 83 | 1009.4 |
| 20260505061241 | 71 | 180 | 2.0 | 4.0 | 0.00 | 0.00 | 0.00 | 82 | 1009.5 |
| 20260505060738 | 71 | 153 | 3.0 | 6.0 | 0.00 | 0.00 | 0.00 | 82 | 1009.3 |
| 20260505060235 | 71 | 161 | 2.0 | 6.0 | 0.00 | 0.00 | 0.00 | 82 | 1009.3 |
| 20260505055730 | 71 | 195 | 5.0 | 8.0 | 0.00 | 0.00 | 0.00 | 82 | 1009.3 |
| 20260505055227 | 71 | 171 | 4.0 | 7.0 | 0.00 | 0.00 | 0.00 | 82 | 1009.5 |
| 20260505054724 | 71 | 176 | 4.0 | 6.0 | 0.00 | 0.00 | 0.00 | 82 | 1009.2 |
| 20260505054222 | 71 | 198 | 5.0 | 9.0 | 0.00 | 0.00 | 0.00 | 81 | 1009.3 |
| 20260505053720 | 71 | 140 | 6.0 | 8.0 | 0.00 | 0.00 | 0.00 | 81 | 1009.5 |
| 20260505053216 | 71 | 175 | 4.0 | 6.0 | 0.00 | 0.00 | 0.00 | 81 | 1009.7 |
| 20260505052713 | 71 | 154 | 3.0 | 6.0 | 0.00 | 0.00 | 0.00 | 81 | 1009.6 |
| 20260505052210 | 72 | 181 | 4.0 | 7.0 | 0.00 | 0.00 | 0.00 | 81 | 1009.6 |
| 20260505051707 | 72 | 149 | 4.0 | 7.0 | 0.00 | 0.00 | 0.00 | 80 | 1009.7 |
| 20260505051205 | 72 | 171 | 4.0 | 6.0 | 0.00 | 0.00 | 0.00 | 80 | 1009.8 |
| 20260505050703 | 72 | 149 | 4.0 | 9.0 | 0.00 | 0.00 | 0.00 | 80 | 1009.7 |
| 20260505050201 | 72 | 201 | 4.0 | 6.0 | 0.00 | 0.00 | 0.00 | 80 | 1009.9 |
| 20260505041631 | 73 | 185 | 6.0 | 10.0 | 0.00 | 0.00 | 0.00 | 77 | 1009.6 |
| 20260505041128 | 73 | 146 | 6.0 | 8.0 | 0.00 | 0.00 | 0.00 | 77 | 1009.7 |
| 20260505040625 | 73 | 159 | 6.0 | 8.0 | 0.00 | 0.00 | 0.00 | 77 | 1010.1 |
| 20260505040122 | 73 | 171 | 6.0 | 8.0 | 0.00 | 0.00 | 0.00 | 76 | 1010.0 |
| 20260505035618 | 73 | 170 | 5.0 | 9.0 | 0.00 | 0.00 | 0.00 | 76 | 1009.8 |
| 20260505035115 | 73 | 189 | 4.0 | 8.0 | 0.00 | 0.00 | 0.00 | 76 | 1010.1 |
| 20260505034611 | 73 | 165 | 5.0 | 8.0 | 0.00 | 0.00 | 0.00 | 75 | 1010.2 |
| 20260505034108 | 73 | 142 | 6.0 | 10.0 | 0.00 | 0.00 | 0.00 | 75 | 1010.2 |
| 20260505033605 | 73 | 139 | 8.0 | 10.0 | 0.00 | 0.00 | 0.00 | 75 | 1010.2 |
| 20260505033103 | 74 | 179 | 4.0 | 11.0 | 0.00 | 0.00 | 0.00 | 74 | 1010.3 |
| 20260505032601 | 74 | 119 | 6.0 | 10.0 | 0.00 | 0.00 | 0.00 | 74 | 1010.2 |
| 20260505032057 | 74 | 207 | 6.0 | 13.0 | 0.00 | 0.00 | 0.00 | 74 | 1010.2 |
| 20260505031555 | 74 | 173 | 10.0 | 13.0 | 0.00 | 0.00 | 0.00 | 74 | 1010.2 |
| 20260505031050 | 74 | 175 | 9.0 | 13.0 | 0.00 | 0.00 | 0.00 | 73 | 1010.1 |
| 20260505030548 | 74 | 161 | 7.0 | 15.0 | 0.00 | 0.00 | 0.00 | 73 | 1010.0 |
| 20260505030044 | 74 | 147 | 7.0 | 15.0 | 0.00 | 0.00 | 0.00 | 73 | 1010.0 |
| 20260505025539 | 74 | 178 | 7.0 | 9.0 | 0.00 | 0.00 | 0.00 | 73 | 1010.2 |
| 20260505025039 | 74 | 185 | 6.0 | 10.0 | 0.00 | 0.00 | 0.00 | 73 | 1010.3 |
| 20260505024535 | 74 | 143 | 5.0 | 9.0 | 0.00 | 0.00 | 0.00 | 73 | 1010.2 |
| 20260505024032 | 74 | 160 | 6.0 | 10.0 | 0.00 | 0.00 | 0.00 | 73 | 1010.1 |
| 20260505023529 | 74 | 140 | 6.0 | 9.0 | 0.00 | 0.00 | 0.00 | 73 | 1010.1 |
| 20260505023027 | 74 | 169 | 6.0 | 11.0 | 0.00 | 0.00 | 0.00 | 73 | 1010.1 |
| 20260505022524 | 75 | 196 | 4.0 | 9.0 | 0.00 | 0.00 | 0.00 | 73 | 1009.9 |
| 20260505022022 | 74 | 166 | 6.0 | 9.0 | 0.00 | 0.00 | 0.00 | 73 | 1009.9 |
| 20260505021518 | 75 | 156 | 8.0 | 13.0 | 0.00 | 0.00 | 0.00 | 73 | 1010.0 |
| 20260505021014 | 75 | 157 | 6.0 | 10.0 | 0.00 | 0.00 | 0.00 | 73 | 1010.0 |
| 20260505020509 | 75 | 155 | 7.0 | 11.0 | 0.00 | 0.00 | 0.00 | 72 | 1009.9 |
| 20260505020006 | 75 | 160 | 6.0 | 14.0 | 0.00 | 0.00 | 0.00 | 72 | 1009.8 |
| 20260505015503 | 75 | 149 | 7.0 | 11.0 | 0.00 | 0.00 | 0.00 | 72 | 1009.8 |
| 20260505015000 | 75 | 133 | 9.0 | 11.0 | 0.00 | 0.00 | 0.00 | 72 | 1009.9 |
| 20260505014457 | 75 | 186 | 6.0 | 11.0 | 0.00 | 0.00 | 0.00 | 71 | 1009.7 |
| 20260505013954 | 75 | 148 | 8.0 | 13.0 | 0.00 | 0.00 | 0.00 | 71 | 1009.7 |